Location: Gouy
(50.0008°N, 3.2556°E)
Time: 03:47:48
(UTC+00:00)

Cosmos 1782 Rocket - Pass Details

Date: 23 May 2024
Orbit: 602 x 629 km, 82.5° (Epoch: 17 June)

Event Time Altitude Azimuth Distance (km) Brightness Sun altitude
Rises 01:50:01 0° 347° (NNW) 2,901 7.8 -14.0°
Reaches altitude 10° 01:52:16 10° 344° (NNW) 1,986 6.8 -13.8°
Maximum altitude 01:56:36 62° 264° (W) 692 3.6 -13.5°
Enters shadow 01:59:44 18° 187° (S) 1,508 5.0 -13.2°
